Flag for U.S.A. Weather past 2 weeks in Concord, California, U.S.A.

Now
67 °F

Scattered clouds.


Feels Like: 67 °F
Forecast: 63 / 93 °F
Wind: 9 mph from Northwest

Location: Buchanan Field

Current Time: Jul 31, 2014 at 9:37:02 AM

Latest Report: Jul 31, 2014 at 8:53 AM


Visibility: 10 mi

Pressure: 29.91 "Hg

Humidity: 68%

Dew point: 56 °F

Location of ConcordLocation

Historic Weather in Concord — Graph

°F

Concord temperature yesterday

Maximum temperature yesterday: 96 °F (at 3:53 PM)
Minimum temperature yesterday: 60 °F (at 5:53 AM)
Average temperature yesterday: 74 °F

Past Weeks' High & Low Weather Summary

 TemperatureHumidityPressure
High100 °F (Jul 25, 3:53 PM)87% (Jul 24, 5:53 AM)30.10 "Hg (Jul 24, 5:53 AM)
Low59 °F (Jul 28, 4:53 AM)5% (Jul 27, 4:53 PM)29.75 "Hg (Jul 25, 5:53 PM)
Average72 °F59%29.92 "Hg
* Reported Jul 16 7:53 AM — Jul 31 7:53 AM, Concord, Weather by CustomWeather, © 2014

Note: Actual official high and low records may vary slightly from our data, if they occured in-between our weather recording intervals... More about our weather records

Advertising

Concord weather history for previous 24 hours

 ConditionsComfort  
Time TempWeatherWind HumidityBarometerVisibility
7:53 AM
Jul 31
63 °FSunny.3 mph75%29.91 "Hg10 mi
6:53 AM60 °FPassing clouds.6 mph83%29.90 "Hg10 mi
5:53 AM59 °FClear.6 mph84%29.89 "Hg10 mi
4:53 AM59 °FClear.6 mph84%29.88 "Hg10 mi
3:53 AM61 °FClear.6 mph81%29.88 "Hg10 mi
2:53 AM60 °FClear.7 mph83%29.88 "Hg10 mi
1:53 AM62 °FClear.5 mph83%29.88 "Hg10 mi
12:53 AM62 °FClear.9 mph83%29.88 "Hg10 mi
11:53 PM
Jul 30
63 °FClear.6 mph81%29.88 "Hg10 mi
10:53 PM67 °FClear.6 mph68%29.89 "Hg10 mi
9:53 PM69 °FClear.7 mph66%29.89 "Hg10 mi
8:53 PM79 °FSunny.6 mph42%29.88 "Hg10 mi
7:53 PM85 °FSunny.8 mph32%29.86 "Hg10 mi
6:53 PM89 °FSunny.12 mph31%29.85 "Hg10 mi
5:53 PM92 °FSunny.9 mph29%29.85 "Hg10 mi
4:53 PM93 °FSunny.13 mph24%29.85 "Hg10 mi
3:53 PM96 °FSunny.17 mph18%29.85 "Hg10 mi
2:53 PM91 °FSunny.15 mph31%29.86 "Hg10 mi
1:53 PM87 °FSunny.13 mph37%29.89 "Hg10 mi
12:53 PM83 °FSunny.13 mph43%29.91 "Hg10 mi
11:53 AM79 °FSunny.9 mph48%29.93 "Hg10 mi
10:53 AM73 °FSunny.13 mph57%29.94 "Hg10 mi
9:53 AM69 °FSunny.14 mph66%29.94 "Hg10 mi
Weather by CustomWeather, © 2014

See weather overviewHow to use our weather pages